Location: Newark
(40.7066°N, 111.8219°W)
Time: 02:12:04
(UTC+00:00)

Transit 2A Rocket - Pass Details

Date: 22 November 2019
Orbit: 594 x 909 km, 66.7° (Epoch: 08 December)

Event Time Altitude Azimuth Distance (km) Brightness Sun altitude
Rises 05:28:28 0° 247° (WSW) 3,036 - -59.6°
Reaches altitude 10° 05:31:25 10° 265° (W) 2,069 - -60.1°
Maximum altitude 05:34:47 19° 312° (NW) 1,495 - -60.6°
Drops below altitude 10° 05:38:00 10° 359° (N) 1,981 - -61.1°
Sets 05:40:47 0° 17° (NNE) 2,862 - -61.5°
